CQH2703 ZYTL-ZSJN

Flight info

Callsign CQH2703
Flight time 0h 50m
Altitude 30100
Route KAR09D KARPI W5 GUMED V42 REPOL W4 DYN DYN81A
Aircraft A320/M-SDE3FGHIRWY/LB1

Departure

Time 2026-04-16 13:02
Airport Dalian Zhoushuizi International Airport (ZYTL)

Arrival

Time 2026-04-16 13:52
Airport Jinan Yaoqiang International Airport (ZSJN)
Time Latitude Longitude Altitude Speed Heading
2026-04-16 12:05 38.96248 121.53660 150 ft 0 kts 182°
2026-04-16 12:46 38.96262 121.53661 150 ft 3 kts 184°
2026-04-16 12:47 38.96282 121.53664 150 ft 3 kts 195°
2026-04-16 12:47 38.96298 121.53671 150 ft 3 kts 245°
2026-04-16 12:47 38.96308 121.53669 150 ft 3 kts 332°
2026-04-16 12:47 38.96319 121.53667 150 ft 1 kts 359°
2026-04-16 12:48 38.96315 121.53667 150 ft 0 kts 359°
2026-04-16 12:51 38.96326 121.53667 150 ft 0 kts 359°
2026-04-16 12:53 38.96346 121.53667 150 ft 8 kts 359°
2026-04-16 12:54 38.96411 121.53630 150 ft 11 kts 273°
2026-04-16 12:54 38.96423 121.53485 150 ft 22 kts 279°
2026-04-16 12:54 38.96426 121.53246 150 ft 31 kts 265°
2026-04-16 12:54 38.96442 121.52934 150 ft 39 kts 277°
2026-04-16 12:55 38.96468 121.52592 150 ft 38 kts 275°
2026-04-16 12:55 38.96495 121.52254 150 ft 38 kts 275°
2026-04-16 12:55 38.96509 121.52055 150 ft 14 kts 275°
2026-04-16 12:55 38.96538 121.51967 150 ft 2 kts 330°
2026-04-16 13:00 38.96558 121.51961 150 ft 9 kts 351°
2026-04-16 13:00 38.96607 121.51966 150 ft 0 kts
2026-04-16 13:01 38.96617 121.51968 150 ft 6 kts
2026-04-16 13:01 38.96698 121.51993 150 ft 16 kts 46°
2026-04-16 13:01 38.96704 121.52076 150 ft 9 kts 90°
2026-04-16 13:01 38.96695 121.52221 150 ft 32 kts 95°
2026-04-16 13:02 38.96647 121.52831 150 ft 102 kts 95°
2026-04-16 13:02 38.96561 121.53972 151 ft 153 kts 95°
2026-04-16 13:02 38.96455 121.55412 633 ft 160 kts 95°
2026-04-16 13:02 38.96362 121.56825 1331 ft 159 kts 96°
2026-04-16 13:03 38.96261 121.58249 1967 ft 164 kts 98°
2026-04-16 13:03 38.96177 121.59271 2223 ft 178 kts 97°
2026-04-16 13:03 38.95989 121.61534 2685 ft 206 kts 97°
2026-04-16 13:03 38.95885 121.62781 2916 ft 220 kts 97°
2026-04-16 13:04 38.95719 121.64815 3280 ft 240 kts 97°
2026-04-16 13:04 38.95545 121.66998 3982 ft 248 kts 97°
2026-04-16 13:04 38.95372 121.69212 4895 ft 250 kts 97°
2026-04-16 13:04 38.95632 121.72190 6031 ft 261 kts 65°
2026-04-16 13:05 38.96357 121.73438 6555 ft 269 kts 42°
2026-04-16 13:05 38.98045 121.74480 7313 ft 276 kts
2026-04-16 13:05 38.99967 121.74762 8130 ft 280 kts
2026-04-16 13:05 39.01880 121.74359 8917 ft 281 kts 332°
2026-04-16 13:06 39.03436 121.72884 9653 ft 282 kts 305°
2026-04-16 13:06 39.04308 121.70623 10072 ft 287 kts 275°
2026-04-16 13:06 39.04547 121.67999 10365 ft 307 kts 270°
2026-04-16 13:06 39.04741 121.65155 10611 ft 331 kts 270°
2026-04-16 13:07 39.04945 121.62116 10839 ft 352 kts 270°
2026-04-16 13:07 39.05098 121.58935 11443 ft 355 kts 263°
2026-04-16 13:07 39.04582 121.55912 12221 ft 349 kts 244°
2026-04-16 13:07 39.03275 121.53328 13037 ft 346 kts 225°
2026-04-16 13:08 39.01330 121.51513 13820 ft 349 kts 210°
2026-04-16 13:08 38.99148 121.50106 14454 ft 353 kts 209°
2026-04-16 13:08 38.96931 121.48694 15003 ft 358 kts 209°
2026-04-16 13:08 38.94682 121.47267 15541 ft 363 kts 209°
2026-04-16 13:09 38.92405 121.45818 16065 ft 368 kts 209°
2026-04-16 13:09 38.90096 121.44343 16577 ft 373 kts 209°
2026-04-16 13:09 38.87762 121.42845 17093 ft 378 kts 209°
2026-04-16 13:09 38.85399 121.41328 17609 ft 382 kts 209°
2026-04-16 13:10 38.83010 121.39797 18119 ft 387 kts 209°
2026-04-16 13:10 38.80588 121.38251 18583 ft 391 kts 209°
2026-04-16 13:10 38.78146 121.36696 19058 ft 393 kts 209°
2026-04-16 13:10 38.75692 121.35134 19557 ft 395 kts 209°
2026-04-16 13:11 38.73227 121.33567 20052 ft 396 kts 209°
2026-04-16 13:11 38.70752 121.31991 20553 ft 398 kts 209°
2026-04-16 13:11 38.68274 121.30416 21047 ft 399 kts 209°
2026-04-16 13:11 38.65778 121.28829 21522 ft 401 kts 209°
2026-04-16 13:12 38.63277 121.27237 22000 ft 402 kts 209°
2026-04-16 13:12 38.60766 121.25642 22462 ft 404 kts 209°
2026-04-16 13:12 38.58247 121.24041 22917 ft 405 kts 209°
2026-04-16 13:12 38.55808 121.22246 23348 ft 404 kts 217°
2026-04-16 13:13 38.53649 121.19951 23748 ft 404 kts 226°
2026-04-16 13:13 38.51832 121.17217 24128 ft 405 kts 233°
2026-04-16 13:13 38.50152 121.14324 24512 ft 405 kts 233°
2026-04-16 13:13 38.48466 121.11439 24883 ft 406 kts 233°
2026-04-16 13:14 38.46770 121.08548 25259 ft 407 kts 233°
2026-04-16 13:14 38.45068 121.05663 25621 ft 408 kts 233°
2026-04-16 13:14 38.43358 121.02773 25962 ft 409 kts 233°
2026-04-16 13:14 38.41647 120.99879 26306 ft 409 kts 233°
2026-04-16 13:15 38.39934 120.96970 26642 ft 410 kts 233°
2026-04-16 13:15 38.38242 120.94098 26969 ft 411 kts 233°
2026-04-16 13:15 38.36521 120.91181 27290 ft 412 kts 232°
2026-04-16 13:15 38.34793 120.88256 27626 ft 413 kts 232°
2026-04-16 13:16 38.33072 120.85344 28090 ft 410 kts 232°
2026-04-16 13:16 38.31361 120.82450 28581 ft 407 kts 232°
2026-04-16 13:16 38.29663 120.79580 29089 ft 404 kts 232°
2026-04-16 13:16 38.27975 120.76731 29566 ft 402 kts 232°
2026-04-16 13:17 38.26239 120.73961 30024 ft 400 kts 227°
2026-04-16 13:17 38.24168 120.71610 30142 ft 400 kts 218°
2026-04-16 13:17 38.21802 120.69738 30152 ft 402 kts 210°
2026-04-16 13:18 38.16777 120.66594 30154 ft 402 kts 210°
2026-04-16 13:18 38.11753 120.63472 30152 ft 402 kts 210°
2026-04-16 13:19 38.06730 120.60364 30153 ft 401 kts 210°
2026-04-16 13:19 38.02117 120.56589 30151 ft 396 kts 224°
2026-04-16 13:20 37.98782 120.51071 30145 ft 396 kts 238°
2026-04-16 13:20 37.95968 120.45065 30136 ft 397 kts 238°
2026-04-16 13:21 37.93140 120.39060 30129 ft 397 kts 238°
2026-04-16 13:21 37.90310 120.33056 30129 ft 397 kts 238°
2026-04-16 13:22 37.87469 120.27044 30129 ft 398 kts 237°
2026-04-16 13:22 37.84621 120.21020 30128 ft 399 kts 237°
2026-04-16 13:23 37.81766 120.14995 30126 ft 400 kts 237°
2026-04-16 13:23 37.78898 120.08959 30126 ft 401 kts 237°
2026-04-16 13:24 37.76022 120.02920 30124 ft 401 kts 237°
2026-04-16 13:24 37.73161 119.96919 30127 ft 401 kts 237°
2026-04-16 13:25 37.70278 119.90878 30123 ft 402 kts 237°
2026-04-16 13:25 37.67393 119.84843 30122 ft 402 kts 237°
2026-04-16 13:26 37.64496 119.78803 30127 ft 402 kts 237°
2026-04-16 13:26 37.61594 119.72763 30126 ft 403 kts 237°
2026-04-16 13:27 37.59320 119.66305 30121 ft 408 kts 253°
2026-04-16 13:27 37.58643 119.59159 30120 ft 412 kts 261°
2026-04-16 13:28 37.58161 119.51946 30120 ft 413 kts 261°
2026-04-16 13:28 37.57659 119.44721 30117 ft 414 kts 261°
2026-04-16 13:29 37.57145 119.37530 30121 ft 415 kts 261°
2026-04-16 13:29 37.56628 119.30277 30118 ft 416 kts 261°
2026-04-16 13:30 37.56114 119.23014 30121 ft 416 kts 261°
2026-04-16 13:30 37.55592 119.15740 30117 ft 417 kts 261°
2026-04-16 13:31 37.55060 119.08463 30115 ft 417 kts 261°
2026-04-16 13:31 37.54525 119.01187 30120 ft 418 kts 261°
2026-04-16 13:32 37.53986 118.93898 30113 ft 418 kts 261°
2026-04-16 13:32 37.53436 118.86605 30115 ft 419 kts 261°
2026-04-16 13:33 37.52881 118.79296 30114 ft 419 kts 261°
2026-04-16 13:33 37.52134 118.72017 30119 ft 419 kts 258°
2026-04-16 13:34 37.51176 118.64785 30115 ft 419 kts 257°
2026-04-16 13:34 37.50220 118.57627 30119 ft 419 kts 258°
2026-04-16 13:35 37.49306 118.50413 30119 ft 420 kts 258°
2026-04-16 13:35 37.48400 118.43153 29863 ft 420 kts 259°
2026-04-16 13:35 37.47944 118.39516 29581 ft 421 kts 259°
2026-04-16 13:36 37.47498 118.35977 29309 ft 422 kts 259°
2026-04-16 13:36 37.47034 118.32327 28988 ft 422 kts 259°
2026-04-16 13:36 37.46566 118.28672 27887 ft 425 kts 259°
2026-04-16 13:36 37.46092 118.24982 26750 ft 429 kts 259°
2026-04-16 13:37 37.45612 118.21263 25615 ft 433 kts 260°
2026-04-16 13:37 37.45135 118.17504 24512 ft 436 kts 261°
2026-04-16 13:37 37.44666 118.13727 23389 ft 439 kts 261°
2026-04-16 13:37 37.44198 118.09920 22146 ft 441 kts 261°
2026-04-16 13:38 37.43732 118.06116 21344 ft 436 kts 262°
2026-04-16 13:38 37.43268 118.02360 20361 ft 434 kts 262°
2026-04-16 13:38 37.42804 117.98647 19565 ft 428 kts 262°
2026-04-16 13:38 37.42340 117.94952 18838 ft 424 kts 262°
2026-04-16 13:39 37.41882 117.91314 18070 ft 420 kts 262°
2026-04-16 13:39 37.41427 117.87700 17208 ft 417 kts 262°
2026-04-16 13:39 37.40974 117.84107 16391 ft 415 kts 262°
2026-04-16 13:39 37.40529 117.80586 15571 ft 412 kts 262°
2026-04-16 13:40 37.40074 117.77022 14730 ft 412 kts 262°
2026-04-16 13:40 37.39619 117.73480 14036 ft 408 kts 262°
2026-04-16 13:40 37.39166 117.69976 13302 ft 404 kts 262°
2026-04-16 13:40 37.38718 117.66509 12638 ft 398 kts 262°
2026-04-16 13:41 37.38279 117.63098 11979 ft 392 kts 262°
2026-04-16 13:41 37.37846 117.59739 11379 ft 387 kts 262°
2026-04-16 13:41 37.37423 117.56478 11230 ft 369 kts 262°
2026-04-16 13:41 37.37021 117.53369 11105 ft 352 kts 263°
2026-04-16 13:42 37.36637 117.50408 10976 ft 336 kts 263°
2026-04-16 13:42 37.36257 117.47564 10857 ft 322 kts 262°
2026-04-16 13:42 37.35886 117.44842 10734 ft 310 kts 262°
2026-04-16 13:42 37.35491 117.42225 10614 ft 300 kts 257°
2026-04-16 13:43 37.34786 117.39794 10490 ft 293 kts 248°
2026-04-16 13:43 37.33955 117.37489 10304 ft 287 kts 248°
2026-04-16 13:43 37.33135 117.35204 10226 ft 286 kts 249°
2026-04-16 13:43 37.32320 117.32926 10103 ft 286 kts 249°
2026-04-16 13:44 37.31507 117.30656 9826 ft 287 kts 249°
2026-04-16 13:44 37.30700 117.28408 9171 ft 285 kts 248°
2026-04-16 13:44 37.29891 117.26157 8523 ft 281 kts 248°
2026-04-16 13:44 37.28950 117.24021 7889 ft 280 kts 233°
2026-04-16 13:45 37.27482 117.22433 7270 ft 281 kts 211°
2026-04-16 13:45 37.25638 117.21650 6663 ft 282 kts 188°
2026-04-16 13:45 37.23686 117.21587 6032 ft 280 kts 181°
2026-04-16 13:45 37.21752 117.21601 5402 ft 276 kts 182°
2026-04-16 13:46 37.19845 117.21603 4779 ft 273 kts 182°
2026-04-16 13:46 37.18011 117.21604 4616 ft 251 kts 183°
2026-04-16 13:46 37.16350 117.21605 4613 ft 230 kts 183°
2026-04-16 13:46 37.14778 117.21603 4608 ft 224 kts 183°
2026-04-16 13:47 37.13228 117.21601 4611 ft 222 kts 183°
2026-04-16 13:47 37.11680 117.21601 4610 ft 222 kts 183°
2026-04-16 13:47 37.10130 117.21601 4474 ft 222 kts 183°
2026-04-16 13:47 37.08587 117.21601 4215 ft 221 kts 183°
2026-04-16 13:48 37.07075 117.21601 3931 ft 219 kts 182°
2026-04-16 13:48 37.05559 117.21601 3646 ft 217 kts 182°
2026-04-16 13:48 37.04048 117.21601 3359 ft 217 kts 182°
2026-04-16 13:48 37.02538 117.21601 3070 ft 217 kts 181°
2026-04-16 13:49 37.01028 117.21601 2775 ft 217 kts 181°
2026-04-16 13:49 36.99520 117.21601 2482 ft 214 kts 182°
2026-04-16 13:49 36.98081 117.21601 2222 ft 197 kts 181°
2026-04-16 13:49 36.96771 117.21602 1956 ft 179 kts 182°
2026-04-16 13:50 36.95597 117.21602 1724 ft 160 kts 181°
2026-04-16 13:50 36.94509 117.21602 1504 ft 153 kts 180°
2026-04-16 13:50 36.93480 117.21601 1315 ft 143 kts 181°
2026-04-16 13:50 36.92506 117.21601 1127 ft 138 kts 180°
2026-04-16 13:51 36.91553 117.21601 942 ft 137 kts 180°
2026-04-16 13:51 36.90601 117.21601 756 ft 137 kts 179°
2026-04-16 13:51 36.89644 117.21601 572 ft 138 kts 179°
2026-04-16 13:51 36.88685 117.21601 389 ft 138 kts 179°
2026-04-16 13:52 36.87723 117.21598 205 ft 138 kts 180°
2026-04-16 13:52 36.86773 117.21586 92 ft 130 kts 180°
2026-04-16 13:52 36.86002 117.21594 86 ft 87 kts 179°
2026-04-16 13:52 36.85600 117.21588 88 ft 40 kts 188°
2026-04-16 13:53 36.85447 117.21490 87 ft 18 kts 210°
2026-04-16 13:53 36.85410 117.21410 81 ft 9 kts 271°
2026-04-16 13:53 36.85394 117.21337 81 ft 8 kts 251°
2026-04-16 13:53 36.85380 117.21271 84 ft 8 kts 256°
2026-04-16 13:54 36.85362 117.21216 83 ft 6 kts 243°
2026-04-16 13:54 36.85343 117.21169 85 ft 6 kts 243°
2026-04-16 13:54 36.85327 117.21130 85 ft 5 kts 243°
2026-04-16 13:54 36.85315 117.21095 82 ft 5 kts 248°
2026-04-16 13:55 36.85287 117.21019 83 ft 14 kts 240°
2026-04-16 13:55 36.85257 117.20948 82 ft 8 kts 256°
2026-04-16 13:55 36.85256 117.20875 80 ft 0 kts 266°
2026-04-16 13:55 36.85256 117.20870 80 ft 2 kts 270°